Starlink 34315

operational
NORAD ID: 64266 Int'l Des: 2025-120 Owner: SPXS Country: US Constellation: starlink
LEOCIRCULAR

Starlink 34315について

説明を読み込み中...

リアルタイム位置

3D地球を読み込み中...

次回通過

高度履歴

Altitude vs Time

uPlot chart will show altitude changes over time

軌道要素

1 64266U 25120L 25355.05192874 .00021642 00000-0 74061-3 0 9996
2 64266 53.1578 122.1494 0001112 84.1522 275.9605 15.30202926 31812
Epoch: Dec 21, 2025 • Age: 12 hours

現在のステータス

高度 491.5 km
速度 7.62 km/s
衛星直下点 -46.22°S, 135.75°E
打ち上げ日 Jun 4, 2025
運用期間 0.5 years
タイプ internet

技術仕様

分類 Payload
質量 575.00 kg
乾燥質量 530.00 kg
総質量 575.00 kg
長さ 0.30 m
直径 4.10 m
スパン 29.00 m
形状 Box + pan
製造者 SPXS
バスタイプ Starlink V2MO
フェーズステータス In Orbit
所有者/国 SPXS/US

大規模コンステレーション

Loading constellations...